Other Public Products
Issued by NWS Grand Forks, ND

Home | Current Version | Previous Version | Graphics & Text | Print | Product List | Glossary On
Versions: 1 2 3 4 5 6 7 8 9 10 11 12 13 14 15 16 17 18 19 20 21 22 23 24 25 26 27 28 29 30 31 32 33 34 35 36 37 38 39 40 41 42 43 44 45 46 47 48 49 50
376
FPUS83 KFGF 251631
OPUFGF
PRAIRIE TO PINES WEATHER ROUNDUP
NATIONAL WEATHER SERVICE EASTERN NORTH DAKOTA/GRAND FORKS ND
1100 AM CDT MON SEP 25 2017

 **SATELLITE DATA USED TO AUGMENT SKY COVER AT AUTOMATED STATIONS**
 *****  WEATHER ACROSS EASTERN NORTH DAKOTA  *****

CITY           SKY/WX    TMP DP  RH WIND       PRES   REMARKS
GRAND FORKS    CLOUDY    50  46  86 N12       30.13R
GRAND FORKS AF CLOUDY    48  45  87 NE13      30.14R
GRAND CITY NWS NOT AVBL
BUXTON           N/A     50  46  85 N8          N/A
DEVILS LAKE    CLOUDY    48  41  76 N9        30.16S
FARGO          CLOUDY    51  48  89 N15       30.10S
WAHPETON ARPT  CLOUDY    50  45  81 N15       30.09S
$$

 *****  WEATHER ACROSS CENTRAL AND WESTERN NORTH DAKOTA  *****

CITY           SKY/WX    TMP DP  RH WIND       PRES   REMARKS
JAMESTOWN      CLOUDY    49  43  80 N12       30.13S
BISMARCK       CLOUDY    51  46  83 NE3       30.16S
MINOT          CLOUDY    50  45  83 E7        30.17R
MINOT AFB      CLOUDY    50  45  81 SE6       30.16R
GARRISON         N/A     49  44  83 SE3       30.16R
WILLISTON      CLOUDY    48  44  86 S3        30.18R
DICKINSON      CLOUDY    45  43  93 SW3       30.15S
HETTINGER      CLOUDY    44  38  79 CALM      30.17S
$$

 *****  OTHER OBSERVATIONS NORTHEAST NORTH DAKOTA  *****

CITY           SKY/WX    TMP DP  RH WIND       PRES   REMARKS
WALHALLA       FAIR     N/A N/A N/A NE12      30.16R
LANGDON        NOT AVBL
CAVALIER       PTSUNNY   50  45  81 N13G20    30.15S
GRAFTON        NOT AVBL
CANDO          CLOUDY    48  46  93 N9        30.19S
FORT TOTTEN      N/A     48  42  79 N3        29.95S
ROLLA          CLOUDY    48  43  81 NE8       30.18S
RUGBY          NOT AVBL
 ***** THE ABOVE OBSERVATIONS ARE NON NWS ARE NOT QUALITY
        CONTROLLED AND MAY MIS-REPORT RAIN FOR SNOW...
$$

 *****  OTHER OBSERVATIONS SOUTHEAST NORTH DAKOTA *****

CITY           SKY/WX    TMP DP  RH WIND       PRES   REMARKS
COOPERSTOWN    CLOUDY    48  45  87 N13       30.14S
VALLEY CITY    NOT AVBL
OAKES          NOT AVBL
GWINNER        CLOUDY    52  46  82 NE12      30.09F
SHEYENNE NWR     N/A     51  47  87 N8        29.95S
BUFFALO          N/A     49  41  74 SW12        N/A
WYNDMERE       NOT AVBL
 ***** THE ABOVE OBSERVATIONS ARE NON NWS ARE NOT QUALITY
       CONTROLLED AND MAY MIS-REPORT RAIN FOR SNOW...
$$

  *****  WEATHER ACROSS NORTHERN MINNESOTA  *****

CITY           SKY/WX    TMP DP  RH WIND       PRES   REMARKS
FLAG ISLAND    PTSUNNY   52  46  82 N12       30.09S
WARROAD        FAIR      50  46  87 N8        30.10S
ROSEAU         FAIR      48  43  81 N9        30.11R
HALLOCK          N/A     50  46  87 N14       30.13R
THF RVR FALLS  CLOUDY    48  46  93 N12       30.11F
HALSTAD          N/A     49  46  90 N9          N/A
FOSSTON        CLOUDY    50  48  93 N10       30.09S
BAUDETTE       PTSUNNY   51  49  92 N9        30.08F
WASKISH        CLOUDY    52  48  87 N6        30.08S
CROOKSTON      CLOUDY    50  46  87 N10       30.12S
$$
  *****  WEATHER ACROSS CENTRAL AND WEST MINNESOTA  *****

CITY           SKY/WX    TMP DP  RH WIND       PRES   REMARKS
BEMIDJI        CLOUDY    49  47  95 N10       30.06F
PARK RAPIDS    CLOUDY    51  47  86 N9        30.05F
WADENA         PTSUNNY   52  48  87 NE7       30.05S
DETROIT LAKES  CLOUDY    52  46  82 N7        30.08S
MOORHEAD       CLOUDY    50  46  87 N12G17    30.11R
FERGUS FALLS   CLOUDY    54  48  82 N9        30.08R
ELBOW LAKE     CLOUDY    52  48  88 N7        30.09R
MORRIS MN      NOT AVBL
STAPLES        CLOUDY    52  48  87 N6        30.05R
WHEATON        CLOUDY    54  46  76 NW10      30.10R
$$
  *****  WEATHER ELSEWHERE ACROSS MINNESOTA  *****

CITY           SKY/WX    TMP DP  RH WIND       PRES   REMARKS
DULUTH         CLOUDY    53  52  96 NW6       30.02R
INTRNTL FALLS  CLOUDY    53  49  86 N7        30.05S
ELY            CLOUDY    54  52  94 N5        30.02S
CLOQUET        PTSUNNY   55  50  82 N5        30.03S
BRAINERD       LGT RAIN  54  50  86 N8        30.05S
HIBBING        LGT RAIN  50  49  96 N10       30.03S
ALEXANDRIA     CLOUDY    52  50  93 N10       30.07R
SAINT CLOUD    LGT RAIN  55  53  93 N6        30.03R
MINNEAPOLIS    CLOUDY    60  58  92 N9        30.00S
$$

  *****  WEATHER ACROSS SOUTH DAKOTA  *****

CITY           SKY/WX    TMP DP  RH WIND       PRES   REMARKS
SIOUX FALLS    LGT RAIN  54  53  97 NE12      30.05R FOG
BROOKINGS      CLOUDY    50  48  93 N10       30.07R
WATERTOWN      CLOUDY    50  47  89 N14       30.06S
HURON          CLOUDY    51  47  86 N14       30.08F
SISSETON         N/A     54  48  80 N16       30.07S
ABERDEEN       CLOUDY    51  47  86 N10       30.11S
MITCHELL       CLOUDY    52  50  93 NE10      30.08S
PIERRE         CLOUDY    51  42  71 N12       30.12R
MOBRIDGE       CLOUDY    51  46  83 NE12      30.12S
RAPID CITY     CLOUDY    45  43  93 SE8       30.14F
$$

  *****  SOME WEATHER IN NEARBY STATES *****

CITY           SKY/WX    TMP DP  RH WIND       PRES   REMARKS
GLASGOW MT     CLOUDY    47  43  86 E8        30.12F
GREAT FALLS MT FAIR      51  33  50 S13       30.05S
CHEYENNE WY    FAIR      42  36  79 CALM      30.12S
SCOTTSBLUFF NE CLOUDY    46  41  82 E3        30.14S
OMAHA NE       TSTM      65  61  87 CALM      29.97R FOG
DES MOINES IA  FAIR      79  67  66 SE5       29.93F
DAVENPORT IA   FAIR      81  65  58 VRB3      30.00S
CHICAGO IL     FAIR      84  61  45 VRB6      30.01S
EAU CLAIRE WI  FAIR      76  64  66 NE5       29.95F
LA CROSSE WI   FAIR      80  64  58 S8        29.95S
$$

  *****  SOME NATIONAL WEATHER *****

CITY           SKY/WX    TMP DP  RH WIND       PRES   REMARKS
LA GUARDIA NY  FAIR      81  67  62 NE9       30.06F
RALEIGH NC     PTSUNNY   79  66  64 VRB7      30.00F
ATLANTA GA     FAIR      82  62  50 E14       30.05S
NEW ORLEANS LA FAIR      81  71  71 NE9       29.93S
OKLAHOMA CITY  PTSUNNY   77  68  73 S10       29.93R
ALBUQUERQUE NM FAIR      59  23  25 NW8       30.02R
SALT LAKE CITY FAIR      48  41  76 SE6       30.15R
LOS ANGELES CA FAIR      76  34  21 E3        29.86S
BOISE ID       FAIR      49  34  56 SE6       30.14R
SEATTLE WA     LGT RAIN  57  53  86 S5        30.11R
$$

*** WEATHER ACROSS MANITOBA...SASKATCHEWAN AND ONTARIO ***
                ***ONTARIO***

CITY           SKY/WX    TMP DP  RH WIND       PRES   REMARKS
GERALDTON      CLOUDY    61  55  82 W8        29.94R
THUNDER BAY    CLOUDY    64  54  68 W8        29.98R
SIOUX LOOKOUT  DRIZZLE   50  48  93 N3        30.06R
TORONTO        PTSUNNY   86  64  48 SE7       30.09F
BIG TROUT LK   CLOUDY    46  46 100 N6        30.07  FOG
PICKLE LAKE    CLOUDY    48  46  93 VRB6      30.04R
DRYDEN         CLOUDY    50  48  93 N7        30.07R
KENORA         DRIZZLE   48  46  93 N9        30.10S
$$
                *** MANITOBA***

CITY           SKY/WX    TMP DP  RH WIND       PRES   REMARKS
BRANDON        PTSUNNY   50  39  66 N5        30.18F
DAUPHIN        CLOUDY    52  43  71 SW5       30.18F
ISLAND LAKE    CLOUDY    43  41  93 N5        30.18R
PILOT MOUND      N/A     48  41  76 N10         N/A
THE PAS        MOSUNNY   48  41  76 SE12      30.16S
THOMPSON       PTSUNNY   41  32  70 E5        30.21R
WINNIPEG       CLOUDY    50  43  76 N10       30.16F
LYNN LAKE      CLOUDY    41  39  93 S13       30.13S
CHURCHILL      PTSUNNY   43  34  70 W8        30.18S
GILLAM         PTSUNNY   41  27  56 N7        30.21S
$$
                ***SASKATCHEWAN***

CITY           SKY/WX    TMP DP  RH WIND       PRES   REMARKS
ESTEVAN        PTSUNNY   48  43  81 SE5       30.16F
KINDERSLEY     PTSUNNY   48  36  61 S9        30.01S
LLOYDMINSTER   CLOUDY    50  37  62 S12       29.94S
PRINCE ALBERT  PTSUNNY   48  39  71 S6        30.07F
REGINA         CLOUDY    50  39  66 SE7       30.13F
YORKTON        CLOUDY    50  39  66 S7        30.15F



USA.gov is the U.S. government's official web portal to all federal, state and local government web resources and services.